Wind_Speed
20 22 29 33 30 28 31 34 32 21 24 25 27 28 26 26 26 30 21 22 27 30 31 24 21 23 24 26 26 25 24 25 24 24 25 26 28 31 33 33 34 35 36
9 22 34 41 34 31 29 33 35 30 29 28 29 32 30 24 21 25 26 28 33 29 29 27 25 20 23 24 26 27 27 25 25 27 27 26 28 29 29 30 32 34 38
11 18 39 39 36 35 32 35 34 41 31 29 24 25 28 33 33 32 26 27 29 30 31 28 26 23 22 24 22 19 24 27 29 26 25 27 29 29 29 28 30 31 34
19 20 41 40 37 21 26 23 28 32 32 29 28 23 23 31 26 30 30 31 30 29 28 24 22 22 22 22 22 28 24 27 28 29 32 32 30 31 33 34 33 32 33
20 28 41 41 33 31 29 26 28 24 22 30 37 38 33 30 30 33 36 33 28 25 27 23 25 23 25 29 31 31 30 30 30 29 29 29 30 32 32 33 37 38 36
28 31 37 43 35 40 34 33 24 36 31 29 22 30 29 31 35 32 28 32 29 28 29 27 27 30 33 33 34 33 32 32 32 33 33 33 33 31 32 34 34 37 39
41 31 34 41 43 44 42 35 32 31 29 31 36 32 31 29 28 29 28 31 33 30 27 32 38 39 32 31 32 34 37 36 37 38 41 41 41 39 38 36 36 39 38
42 41 37 37 46 45 47 43 38 38 32 37 30 35 27 36 24 37 43 44 42 42 44 44 46 43 42 38 33 32 33 38 41 43 46 46 46 47 47 46 45 43 42
49 37 46 39 48 51 49 48 44 40 42 37 44 42 41 33 27 28 32 34 35 35 37 40 36 36 36 39 40 40 41 45 45 43 44 47 50 52 54 54 54 52 51
43 34 42 47 42 44 51 46 47 40 44 36 42 44 46 43 48 42 45 42 41 41 41 43 46 44 44 45 47 48 52 54 55 57 59 53 52 53 54 57 58 56 55
37 36 37 49 37 45 48 44 47 48 44 46 39 37 41 45 49 51 51 48 45 48 44 46 48 49 51 53 53 57 57 58 58 58 58 56 52 55 57 58 59 58 58
39 35 38 46 50 38 41 49 47 53 45 42 49 47 41 45 45 48 49 48 53 53 57 55 54 56 55 56 53 57 60 59 57 54 57 59 59 60 58 60 62 64 65
43 42 37 34 48 54 46 46 44 50 52 53 52 57 52 56 53 52 51 53 56 54 56 62 53 56 54 55 55 51 52 52 50 49 51 53 52 54 56 58 59 62 65
38 46 45 43 45 48 55 49 52 50 54 53 52 52 50 58 54 58 59 57 58 54 55 51 49 49 49 44 42 43 46 49 50 50 49 47 48 49 53 53 53 54 57
44 49 49 48 48 51 54 54 56 58 54 55 59 58 56 54 56 56 59 59 54 55 50 44 41 41 43 40 40 43 44 46 46 46 44 45 44 43 44 45 45 45 44
53 46 55 55 56 54 56 58 58 56 60 62 60 61 66 62 54 54 55 54 56 49 42 42 41 40 42 41 43 47 47 46 45 46 45 45 44 44 46 47 50 50 51
52 53 54 56 53 54 54 51 59 57 53 56 54 53 60 59 61 55 54 52 48 43 42 41 42 42 42 45 47 48 48 48 47 47 49 49 51 52 53 55 58 59 60
42 44 52 55 56 55 56 56 61 57 50 46 44 44 46 47 47 47 45 46 45 43 43 44 47 47 46 47 48 49 48 49 49 49 51 53 55 56 58 59 63 64 65
38 39 40 41 44 46 47 46 44 43 42 42 41 42 44 44 45 45 45 45 45 47 48 49 48 48 49 50 50 49 50 52 53 54 57 59 62 65 65 65 67 70 71
42 43 44 44 44 44 44 44 42 42 43 45 45 44 45 45 46 46 45 46 49 51 52 53 53 53 53 54 56 57 57 57 59 62 64 67 69 73 75 75 76 77 78
43 44 45 48 47 47 46 45 45 45 47 47 46 46 47 47 49 50 52 54 56 56 56 58 57 56 58 59 61 63 64 64 65 67 71 74 77 80 83 86 88 90 90
46 46 46 46 47 48 48 46 46 47 48 48 48 49 52 53 54 56 58 61 62 61 62 62 63 62 63 62 63 66 67 69 70 73 76 79 83 86 89 91 94 97 98
52 51 51 49 48 48 49 49 48 49 51 53 55 56 56 58 60 61 62 64 66 66 67 66 68 69 70 70 71 72 73 75 78 82 85 87 89 93 95 99 100 103 104
63 56 55 55 55 54 54 54 54 54 53 54 54 55 56 58 61 64 66 68 70 71 71 71 73 75 78 80 80 81 81 82 83 82 89 95 97 98 102 105 109 111 109
67 66 63 62 62 61 60 60 60 60 59 59 60 61 61 62 64 66 68 69 71 75 77 79 80 82 85 87 88 90 91 93 94 92 92 94 98 103 109 112 114 113 115
76 72 71 70 68 67 66 66 65 65 66 68 69 68 68 69 70 72 73 75 77 79 80 82 85 89 91 93 94 95 96 100 101 102 100 102 104 108 112 114 113 118 121
Wind_Direction
253 216 188 190 192 199 197 194 189 197 221 234 231 231 236 236 235 243 244 248 250 254 260 268 279 276 265 259 260 259 256 257 255 255 254 252 252 249 245 246 244 242 245
200 192 183 170 176 179 189 208 199 207 224 226 233 243 243 241 234 247 250 249 250 252 264 269 272 277 269 261 258 256 259 257 259 258 256 255 255 258 256 249 247 248 246
192 180 177 166 181 191 195 201 204 211 225 234 232 225 223 230 233 235 246 252 260 261 263 265 270 274 276 263 259 273 268 262 258 258 261 258 256 255 260 263 249 246 251
197 180 176 182 179 188 218 219 212 218 223 228 227 216 229 233 234 244 256 261 269 266 273 273 273 262 266 263 259 285 279 272 268 264 262 261 262 258 256 254 249 252 255
160 184 172 184 167 179 200 215 210 204 218 223 229 228 235 250 254 257 263 262 271 270 276 265 272 260 263 266 274 277 275 273 275 269 266 266 263 258 257 258 256 256 253
186 164 187 185 177 177 177 190 194 219 217 222 244 245 250 255 263 269 266 265 264 264 259 257 265 272 272 266 264 264 264 264 265 264 263 266 263 259 257 254 256 255 254
169 177 188 203 185 190 199 195 199 215 225 245 240 250 264 259 238 250 250 245 250 257 252 272 282 281 274 265 266 267 263 265 264 260 261 262 261 259 257 257 258 256 254
178 189 196 192 199 197 212 216 218 209 232 223 241 241 248 241 258 248 250 261 262 266 269 274 277 271 268 268 266 270 270 271 268 269 265 263 262 262 264 260 256 254 255
196 201 204 193 196 210 216 224 228 240 232 231 234 250 243 246 251 248 241 255 260 258 265 263 266 268 265 274 273 273 270 274 274 275 277 273 268 265 263 265 266 262 259
206 215 208 204 208 209 214 222 231 235 235 250 250 259 257 256 259 269 274 277 277 279 280 276 278 279 275 269 278 275 279 281 279 279 279 272 271 267 264 267 268 265 264
206 217 218 213 217 218 218 231 233 228 240 243 255 261 263 266 266 263 271 277 281 282 285 285 283 280 279 276 278 280 283 285 281 277 273 266 266 266 265 262 262 263 264
213 224 219 226 220 224 233 236 243 237 247 255 252 261 263 267 272 273 277 279 281 282 280 283 282 286 282 281 282 284 285 281 277 272 270 268 264 265 265 264 262 263 262
229 229 234 235 226 229 238 243 241 242 246 254 257 258 262 266 271 276 277 277 277 283 282 283 286 285 282 278 278 282 282 280 274 269 266 265 263 263 264 265 263 262 262
231 229 233 232 235 236 238 240 243 242 248 248 252 255 261 263 270 272 275 277 276 280 282 278 276 278 276 272 276 277 279 279 278 278 274 273 272 271 267 268 270 270 269
231 230 229 235 238 240 241 247 244 243 246 249 250 257 263 265 269 271 267 269 272 279 277 272 271 272 274 277 278 277 277 275 275 275 272 273 272 272 270 270 270 276 275
232 232 230 233 239 244 245 246 250 252 252 256 257 260 264 265 266 269 266 266 275 272 268 270 270 273 276 278 275 274 275 274 271 270 271 274 278 279 279 280 284 287 283
244 246 236 239 240 245 248 249 245 254 257 257 259 262 259 262 264 264 267 266 263 262 264 265 266 273 277 279 277 277 279 279 278 278 280 283 286 288 288 291 290 290 290
241 242 241 244 246 246 248 254 256 258 256 256 255 255 255 256 257 259 260 260 263 264 263 267 272 274 276 276 276 277 278 280 280 282 285 287 288 289 289 290 291 290 289
243 243 242 242 243 245 246 248 250 251 251 249 251 254 255 256 258 261 261 261 263 265 267 268 269 271 272 274 277 279 280 281 282 284 287 289 291 290 288 289 290 289 289
247 245 244 245 247 248 248 248 249 250 250 249 254 255 256 258 258 259 262 264 265 266 265 267 268 271 274 276 278 280 281 283 284 286 288 289 290 291 293 293 293 292 292
249 249 249 248 249 250 251 252 252 252 252 253 255 256 257 261 261 261 261 263 264 264 266 269 270 272 278 280 281 283 284 286 287 288 289 291 292 293 294 296 296 296 295
252 253 252 252 252 253 254 255 256 256 256 258 258 259 259 260 260 261 262 263 266 267 268 270 272 274 278 278 279 281 286 287 286 287 288 288 288 290 292 292 292 293 293
252 253 254 253 253 251 252 253 255 257 258 260 260 260 261 261 262 262 263 264 267 269 270 271 271 274 278 278 279 280 281 284 286 288 288 288 289 290 290 290 291 292 291
255 255 255 254 255 253 253 254 256 258 259 262 263 263 264 264 265 265 266 266 266 268 269 270 271 273 276 278 278 278 279 281 281 282 286 288 289 289 290 291 292 292 291
254 255 254 254 254 255 256 256 258 259 260 261 262 263 264 264 265 265 266 268 269 270 271 271 272 274 276 277 278 279 280 281 282 283 283 283 285 287 290 292 293 291 290
252 253 254 253 253 254 255 256 258 260 262 263 264 265 266 266 265 266 267 268 270 271 272 273 273 274 276 277 279 280 281 283 284 285 285 285 285 287 289 289 289 290 290
Height
10743 10746 10753 10763 10769 10778 10785 10791 10795 10799 10801 10802 10804 10805 10806 10806 10807 10809 10812 10815 10818 10819 10821 10823 10824 10824 10825 10827 10828 10828 10829 10830 10831 10833 10834 10835 10835 10836 10837 10838 10839 10841 10842
10741 10744 10752 10761 10768 10775 10782 10787 10791 10794 10795 10797 10798 10800 10800 10803 10807 10808 10810 10812 10814 10815 10816 10819 10821 10821 10822 10823 10824 10824 10825 10826 10827 10829 10829 10829 10830 10831 10833 10834 10835 10835 10836
10741 10745 10752 10760 10766 10773 10779 10782 10788 10789 10791 10793 10795 10796 10797 10798 10802 10804 10805 10808 10809 10811 10814 10816 10817 10818 10818 10819 10820 10820 10821 10822 10823 10824 10825 10825 10826 10827 10828 10828 10829 10831 10831
10741 10747 10754 10757 10765 10774 10777 10780 10784 10786 10787 10790 10792 10794 10791 10795 10798 10800 10802 10803 10806 10807 10809 10810 10812 10813 10814 10814 10815 10815 10817 10816 10819 10820 10820 10821 10821 10821 10821 10822 10824 10824 10825
10746 10748 10755 10758 10763 10773 10773 10778 10780 10784 10785 10786 10787 10789 10791 10793 10795 10797 10798 10800 10801 10803 10804 10806 10808 10809 10810 10810 10810 10811 10811 10811 10813 10814 10814 10815 10815 10816 10816 10816 10816 10817 10818
10742 10752 10756 10759 10762 10768 10771 10774 10776 10779 10782 10782 10783 10785 10787 10789 10790 10792 10793 10795 10796 10797 10798 10799 10800 10802 10803 10803 10804 10805 10803 10805 10807 10807 10808 10808 10809 10810 10810 10810 10811 10811 10812
10740 10749 10754 10758 10761 10764 10767 10769 10771 10774 10780 10779 10781 10782 10784 10786 10788 10789 10790 10790 10790 10791 10792 10793 10796 10797 10797 10798 10799 10799 10798 10799 10801 10800 10800 10801 10801 10802 10803 10804 10804 10804 10804
10738 10744 10748 10751 10755 10757 10759 10763 10764 10769 10767 10773 10776 10779 10779 10779 10781 10781 10784 10785 10786 10786 10787 10788 10790 10790 10790 10792 10793 10793 10792 10793 10794 10794 10794 10793 10794 10794 10794 10794 10795 10796 10795
10734 10738 10743 10746 10747 10752 10754 10756 10760 10762 10765 10765 10767 10769 10772 10774 10773 10775 10777 10778 10779 10779 10780 10781 10782 10783 10783 10784 10785 10786 10785 10784 10786 10787 10788 10787 10786 10786 10785 10786 10785 10786 10787
10731 10733 10737 10741 10744 10746 10748 10751 10754 10756 10760 10761 10763 10763 10763 10765 10767 10766 10766 10768 10769 10770 10771 10772 10772 10773 10774 10774 10776 10776 10776 10775 10776 10777 10777 10778 10776 10776 10776 10777 10777 10777 10776
10728 10730 10732 10734 10738 10741 10744 10747 10748 10749 10752 10754 10755 10756 10757 10757 10758 10760 10760 10760 10761 10762 10762 10763 10764 10765 10765 10764 10765 10766 10765 10764 10762 10763 10764 10763 10763 10764 10765 10765 10765 10766 10766
10725 10727 10729 10732 10733 10735 10739 10741 10742 10745 10745 10746 10747 10749 10749 10749 10750 10750 10751 10752 10753 10753 10753 10754 10754 10753 10753 10753 10753 10752 10752 10752 10751 10749 10748 10750 10750 10749 10750 10751 10752 10754 10754
10723 10724 10725 10726 10728 10731 10733 10735 10737 10738 10739 10740 10741 10742 10742 10742 10742 10743 10744 10744 10745 10744 10744 10744 10742 10743 10742 10742 10741 10740 10740 10740 10739 10739 10738 10737 10736 10737 10736 10737 10737 10737 10738
10717 10718 10718 10720 10723 10725 10726 10727 10729 10731 10732 10733 10733 10733 10732 10733 10734 10734 10734 10734 10735 10735 10735 10734 10732 10731 10732 10730 10728 10728 10730 10729 10728 10728 10727 10726 10726 10727 10729 10729 10728 10727 10725
10710 10711 10711 10712 10714 10716 10718 10720 10721 10722 10723 10723 10723 10722 10722 10723 10724 10725 10726 10726 10726 10726 10726 10725 10723 10722 10722 10720 10718 10720 10722 10719 10719 10717 10717 10716 10717 10716 10717 10718 10716 10714 10714
10702 10703 10705 10707 10709 10710 10710 10710 10711 10713 10713 10713 10713 10713 10712 10712 10714 10714 10713 10716 10716 10716 10716 10716 10715 10713 10711 10709 10709 10711 10711 10709 10708 10705 10705 10705 10705 10705 10705 10704 10701 10700 10699
10696 10695 10696 10697 10699 10700 10700 10701 10703 10703 10703 10703 10703 10702 10703 10703 10705 10703 10704 10704 10706 10706 10706 10706 10705 10703 10701 10700 10701 10701 10699 10698 10696 10695 10693 10692 10692 10691 10689 10686 10684 10684 10683
10687 10687 10688 10688 10690 10690 10691 10691 10692 10692 10692 10692 10692 10692 10693 10694 10693 10694 10694 10696 10696 10696 10696 10696 10695 10693 10692 10691 10690 10690 10689 10687 10685 10684 10681 10679 10678 10676 10674 10672 10669 10668 10667
10678 10678 10679 10680 10680 10681 10681 10681 10681 10682 10682 10682 10683 10683 10684 10684 10684 10684 10686 10687 10687 10686 10686 10685 10685 10684 10683 10680 10678 10677 10676 10675 10672 10670 10667 10665 10661 10658 10657 10656 10654 10651 10649
10669 10669 10669 10670 10670 10671 10671 10671 10672 10673 10672 10672 10673 10673 10673 10674 10674 10675 10676 10676 10676 10676 10675 10675 10675 10674 10671 10668 10665 10662 10662 10661 10658 10654 10651 10649 10646 10642 10639 10637 10636 10633 10630
10658 10658 10659 10659 10660 10660 10660 10661 10662 10663 10661 10661 10662 10663 10663 10663 10664 10664 10665 10666 10666 10665 10664 10662 10662 10661 10659 10656 10651 10646 10644 10645 10641 10637 10634 10630 10625 10621 10617 10615 10612 10609 10606
10647 10646 10646 10647 10648 10649 10649 10650 10651 10650 10650 10652 10652 10652 10652 10652 10652 10653 10653 10653 10652 10652 10650 10648 10647 10645 10644 10643 10639 10634 10628 10626 10625 10621 10618 10613 10606 10602 10598 10597 10591 10587 10582
10633 10634 10635 10636 10636 10637 10637 10637 10638 10638 10638 10639 10639 10639 10639 10639 10639 10639 10639 10639 10638 10637 10636 10634 10632 10628 10626 10626 10625 10620 10617 10612 10606 10600 10596 10592 10588 10581 10577 10571 10565 10559 10556
10618 10622 10623 10623 10623 10624 10624 10624 10624 10624 10625 10625 10625 10624 10624 10624 10624 10623 10623 10623 10622 10621 10619 10617 10616 10613 10608 10606 10604 10602 10599 10597 10595 10597 10579 10565 10561 10555 10549 10544 10536 10527 10522
10603 10605 10607 10607 10608 10609 10609 10609 10609 10609 10609 10609 10609 10609 10609 10608 10607 10607 10606 10606 10604 10603 10601 10598 10597 10595 10591 10586 10583 10578 10574 10572 10570 10574 10574 10564 10553 10540 10529 10518 10504 10495 10491
10582 10586 10587 10589 10591 10592 10592 10593 10594 10593 10592 10591 10592 10592 10592 10591 10590 10589 10588 10587 10585 10584 10581 10579 10577 10573 10569 10565 10560 10557 10551 10545 10539 10537 10539 10534 10532 10521 10510 10500 10489 10473 10457